カタログに戻る

FENGYUN 1C DEB

運用中SSO
NORAD 29914·DEBRIS·🇨🇳 China

打ち上げ May 10, 1999 から Taiyuan Satellite Launch Center

Loading…

次のパス (今後24時間)

TLE

最新Source: Space-Track

元期: Sep 14, 2026, 20:02 UTC

1 29914U 99025HL  26257.83539712  .00000189  00000-0  14777-3 0  9997
2 29914  98.8181 283.2535 0036311  65.7248 106.8996 14.03234848  6570

AllMySatでFENGYUN 1C DEBをリアルタイム追跡

Download on the App Store